Calgary Springbank, Alberta

9:50 AM MST on February 06, 2016 (GMT -0700)
Springbank

Weather History for CYBW - December, 2013

Change the Weather History Date:

Saturday, December 14, 2013

  Actual Average Record
Temperature  
Mean Temperature 20 °F -  
Max Temperature 42 °F 26 °F - ()
Min Temperature -3 °F 7 °F - ()
Degree Days  
Heating Degree Days 46    
Moisture  
Dew Point 25 °F    
Average Humidity 52    
Maximum Humidity 65    
Minimum Humidity 39    
Precipitation  
Precipitation 0.00 in - - ()
Sea Level Pressure  
Sea Level Pressure 29.99 in    
Wind  
Wind Speed 19 mph ()    
Max Wind Speed 34 mph    
Max Gust Speed 43 mph    
Visibility 15.0 miles    
Events Snow    
T = Trace of Precipitation, MM = Missing Value Source: Averaged Metar Reports

Daily Weather History Graph

Daily Weather History Graph

Search for Another Location

Airport or City:

Trip Planner

Search our weather history database for the weather conditions in past years. The results will help you decide how hot, cold, wet, or windy it might be!

Date:

Astronomy

Dec. 14, 2013 Rise Set
Actual Time 8:34 AM MST 4:30 PM MST
Civil Twilight 7:54 AM MST 5:10 PM MST
Nautical Twilight 7:11 AM MST 5:52 PM MST
Astronomical Twilight 6:31 AM MST 6:33 PM MST
Moon 3:06 PM MST (12/14) 5:46 AM MST (12/14)
Length of Visible Light 9h 15m
Length of Day
7h 56m
Waxing Gibbous, 94% of the Moon is Illuminated
Dec 14
Waxing Gibbous
Dec 17
Full
Dec 25
Last Quarter
Jan 1
New
Jan 7
First Quarter

Hourly Weather History & Observations

Time (MST) Temp. Windchill Dew Point Humidity Pressure Visibility Wind Dir Wind Speed Gust Speed Precip Events Conditions
5:00 AM 40 °F - 24 °F 39% 30.07 in 15 mi West 26.5 mph - - Snow Low Drifting Snow
5:00 AM 39.2 °F 27.8 °F 23.0 °F 52% 30.06 in 15.0 mi West 27.6 mph 36.8 mph N/A   Unknown
6:00 AM 41.0 °F 30.7 °F 23.0 °F 49% 30.06 in 15.0 mi West 25.3 mph 33.4 mph N/A   Unknown
7:00 AM 41.0 °F 30.7 °F 24.8 °F 53% 30.07 in 15.0 mi West 25.3 mph - N/A   Unknown
8:00 AM 41.0 °F 30.7 °F 24.8 °F 53% 30.08 in 15.0 mi West 25.3 mph 32.2 mph N/A   Unknown
9:00 AM 41.0 °F 30.9 °F 24.8 °F 53% 30.09 in 30.0 mi West 24.2 mph - N/A   Unknown
10:00 AM 41.0 °F 32.2 °F 23.0 °F 49% 30.09 in 30.0 mi West 18.4 mph - N/A   Overcast
11:00 AM 41 °F - 24 °F 39% 30.09 in 28 mi WNW 11.5 mph - -   Mostly Cloudy
11:00 AM 41.0 °F 34.3 °F 24.8 °F 53% 30.09 in 30.0 mi NW 11.5 mph 18.4 mph N/A   Mostly Cloudy
12:00 PM 41.0 °F 30.5 °F 24.8 °F 53% 30.06 in 30.0 mi West 26.5 mph 32.2 mph N/A   Mostly Cloudy
1:00 PM 41.0 °F 30.7 °F 24.8 °F 53% 30.04 in 30.0 mi West 25.3 mph 35.7 mph N/A   Mostly Cloudy
2:00 PM 41.0 °F 29.5 °F 24.8 °F 53% 30.03 in 30.0 mi West 32.2 mph 39.1 mph N/A   Mostly Cloudy
3:00 PM 41.0 °F 29.1 °F 24.8 °F 53% 30.01 in 30.0 mi West 34.5 mph 42.6 mph N/A   Mostly Cloudy
4:00 PM 41.0 °F 31.9 °F 26.6 °F 57% 29.94 in 30.0 mi West 19.6 mph 31.1 mph N/A   Overcast
5:00 PM 41 °F - 25 °F 40% 29.88 in 28 mi ESE 1.2 mph - -   Overcast
5:00 PM 41.0 °F 39.0 °F 24.8 °F 53% 29.88 in 30.0 mi Variable 3.5 mph - N/A   Overcast
6:00 PM 41.0 °F 31.1 °F 26.6 °F 57% 29.86 in 15.0 mi West 23.0 mph 29.9 mph N/A   Mostly Cloudy
7:00 PM 39.2 °F 31.6 °F 26.6 °F 61% 29.85 in 15.0 mi West 12.7 mph - N/A   Mostly Cloudy
8:00 PM 37.4 °F 27.2 °F 26.6 °F 65% 29.85 in 15.0 mi West 19.6 mph - N/A   Overcast
9:00 PM 39.2 °F 31.6 °F 24.8 °F 56% 29.85 in 15.0 mi West 12.7 mph 23.0 mph N/A   Mostly Cloudy
10:00 PM 42.8 °F 33.1 °F 24.8 °F 49% 29.77 in 15.0 mi WNW 25.3 mph 35.7 mph N/A   Mostly Cloudy